Regional Weather Roundup
Issued by NWS Pendleton, OR

Home | Current Version | Previous Version | Text Only | Print | Product List | Glossary On
Versions: 1 2 3 4 5 6 7 8 9 10 11 12 13 14 15 16 17 18 19 20 21 22 23 24 25 26 27 28 29 30 31 32 33 34 35 36 37 38 39 40 41 42 43 44 45 46 47 48 49 50
000
ASUS46 KPDT 131225
RWRPDT
PENDLETON REGIONAL WEATHER ROUNDUP
NATIONAL WEATHER SERVICE PENDLETON OREGON
500 AM PDT SUN JUL 13 2014

NOTE: FAIR INDICATES FEW OR NO CLOUDS BELOW 12,000 FEET WITH NO
SIGNIFICANT WEATHER AND/OR OBSTRUCTIONS TO VISIBILITY.

# INDICATES UNOFFICIAL STATION AND DATA

WAZ520-131310-
EAST SLOPES OF WASHINGTON CASCADES

CITY            SKY/WX      TMP DP  RH  WIND    PRES   REMARKS
#CLE ELUM HS    N/A         58  51  77  CALM    30.07R
#CLE ELUM LAKE  N/A         67  46  47  CALM    29.96R
#CLIFFDEL 2NW   N/A         57  47  69  CALM    N/A
#GLENWOOD       N/A         53  51  93  CALM    30.00S
#MANASTASH CYN  N/A         64  41  43  CALM    30.14S
#NELSON         N/A         57  49  75  CALM    30.03S
#NELSON 3SW     N/A         62  46  56  CALM    30.18S
#NILE           N/A         61  50  67  CALM    29.35R
#RONALD 2NW     N/A         66  49  54  CALM    30.04S
#TROUT LAKE 1NE N/A         63  51  65  CALM    29.98S
$$

WAZ521-131310-
SIMCOE HIGHLANDS

CITY            SKY/WX      TMP DP  RH  WIND    PRES   REMARKS
#BICKLETON HS   N/A         71  30  22  N7      30.18S
#CENTERVILLE 4W N/A         69  55  61  N1      29.84S
#CENTERVILLE 1SWN/A         59  42  53  CALM    29.95S
#GOLDENDALE 1NE N/A         61  36  39  N5      N/A
#GOLDENDALE 1S  N/A         60  44  55  CALM    30.05S
#GOODNOE HILLS  N/A         71  53  53  S2      29.99R
#LYLE 6NE       N/A         68  62  81  CALM    29.94S
$$

WAZ026-131310-
KITTITAS VALLEY

CITY            SKY/WX      TMP DP  RH  WIND    PRES   REMARKS
ELLENSBURG AP   CLEAR       62  51  67  E5      30.10S
6HR MIN TEMP:   62; 6HR MAX TEMP:   79;

#ELLENSBURG CWU N/A         64  53  67  CALM    29.95R
#ELLENSBURG 3NE N/A         62  52  70  CALM    30.10R
#KITTITAS 3S    N/A         55  53  93  CALM    30.00R
#THORP 6N       N/A         65  50  58  N7      30.00R
$$

WAZ027-131310-
YAKIMA VALLEY

CITY            SKY/WX      TMP DP  RH  WIND    PRES   REMARKS
YAKIMA AIRPORT  CLEAR       71  52  51  W8      30.06S
6HR MIN TEMP:   65; 6HR MAX TEMP:   77;

YAKIMA-VAGABOND CLEAR       70  44  39  E13     30.08S
#COWICHE 1N     N/A         72  50  46  NW7     30.23S
#DONALD 2NE     N/A         73  47  40  W1      30.37R
#GRANDVIEW      N/A         64  53  67  CALM    29.99R
#MABTON         N/A         64  52  65  CALM    30.02R
#MOXEE 2E       N/A         65  43  45  E2      29.96R
#NACHES 2SW     N/A         72  51  48  W8      30.10S
#OUTLOOK DOT    N/A         N/A N/A N/A NE7     N/A
#SELAH 8E       N/A         62  41  46  E2      N/A
#TERRACE HTS    N/A         66  50  56  CALM    29.95R
#TOPPENISH      N/A         69  55  61  W1      29.91R
#WAPATO 4NE     N/A         73  47  40  W1      30.37R
#WEST VALLEY    N/A         68  53  59  CALM    30.00R
#W YAKIMA       N/A         73  52  48  N2      29.98R
#WHITE SWAN 5E  N/A         61  53  75  CALM    29.98R
#WILEY CITY 3W  N/A         65  46  50  CALM    30.06R
$$

WAZ028-131310-
LOWER COLUMBIA BASIN...WASHINGTON

CITY            SKY/WX      TMP DP  RH  WIND    PRES   REMARKS
PASCO           PTCLDY      62  56  81  NE3     30.01R
6HR MIN TEMP:   61; 6HR MAX TEMP:   73;

PROSSER AWOS    N/A         61  54  78  NW2     30.05R
RICHLAND AWOS   PTCLDY      66  54  65  CALM    30.01R
#BASIN CITY 5SW N/A         64  56  75  CALM    30.02R
#BENTON CITY    N/A         66  48  52  CALM    29.88S
#CONNELL 5N     N/A         65  37  35  CALM    29.97S
#CONNELL 5NW    N/A         63  35  35  CALM    29.94R
#ELTOPIA 6NW    N/A         68  49  51  NE1     29.00R
#KENNEWICK 3S   N/A         76  43  31  CALM    29.97R
#PATERSON       N/A         69  52  55  CALM    29.97R
#PROSSER        N/A         76  44  32  SE1     29.97R
#SAGEMOOR 2W    N/A         70  49  47  CALM    29.83R
#TOUCHET 2S     N/A         54  51  90  CALM    29.98R
#WEST PASCO     N/A         67  51  56  E1      30.00R
$$

WAZ029-131310-
FOOTHILLS OF THE BLUES...WASHINGTON

CITY            SKY/WX      TMP DP  RH  WIND    PRES   REMARKS
WALLA WALLA AP  PTCLDY      69  41  36  E5      30.04S
6HR MIN TEMP:   69; 6HR MAX TEMP:   81;

#COLLEGE PLACE  N/A         69  49  49  CALM    30.01R
#DAYTON SCHOOL  N/A         67  41  39  N5      30.06S
#LOWDEN 2SE     N/A         59  52  78  CALM    29.98R
#PLEASANT VIEW 1N/A         70  37  30  CALM    29.99R
#PRESCOTT       N/A         63  45  52  CALM    29.96R
#SUDBURY        N/A         59  N/A N/A CALM    N/A
#WHITMAN COLLEGEN/A         73  45  37  CALM    30.01R
#WAITSBURG 8N   N/A         65  28  25  N1      29.88S
#WALLA WALLA 5E N/A         69  41  36  NE1     N/A
$$

WAZ030-131310-
BLUE MOUNTAINS...WASHINGTON

CITY            SKY/WX      TMP DP  RH  WIND    PRES   REMARKS
$$

ORZ009-041-WAZ024-131310-
COLUMBIA RIVER GORGE

CITY            SKY/WX      TMP DP  RH  WIND    PRES   REMARKS
HOOD RIVER AP   PTCLDY      63  57  81  CALM    30.05S
THE DALLES AP   MOCLDY      73  61  66  NW13    30.00S
6HR MIN TEMP:   73; 6HR MAX TEMP:   85;

#ARLINGTON AIRPON/A         73  54  51  W5      N/A
#ARLINGTON HS   N/A         70  45  41  SE7     29.89S
#CELILO DOT     N/A         76  58  54  CALM    N/A
#MOSIER 1S      N/A         67  55  65  CALM    30.09S
#MURDOCK        N/A         73  64  73  W12     30.01R
#RUFUS DOT      N/A         74  60  62  CALM    N/A

$$

ORZ510-131310-
NORTH CENTRAL OREGON

CITY            SKY/WX      TMP DP  RH  WIND    PRES   REMARKS
#CHENOWITH 1W   N/A         70  59  68  W15     N/A
#COW CYN RST AREN/A         73  N/A N/A NE2     N/A
#GRASS VALLEY 1SN/A         70  54  57  CALM    29.96R
#KENT DOT       N/A         73  49  43  N5      N/A
#MAUPIN SCHOOL  N/A         72  44  37  CALM    30.07R
#MORO SCHOOL    N/A         72  62  71  W1      30.08R
#SHANIKO 5WSW   N/A         73  39  29  NE12    N/A
#SHANIKO 4NW    N/A         73  37  27  NE9     30.19R
#TYGH VALLEY 2NEN/A         67  49  52  CALM    29.97R
#WAPANITIA AIRPON/A         67  54  63  CALM    29.97S
#WASCO DOT      N/A         61  56  84  SE3     N/A
#WASCO 5NE      N/A         70  58  66  CALM    29.96R
$$

ORZ511-131310-
CENTRAL OREGON

CITY            SKY/WX      TMP DP  RH  WIND    PRES   REMARKS
BEND AIRPORT    MOCLDY      63  43  48  CALM    30.19S
MADRAS AIRPORT  CLOUDY      63  48  58  SE7     30.13S
REDMOND AIRPORT MOCLDY      60  47  62  S6      30.15S
6HR MIN TEMP:   60; 6HR MAX TEMP:   78;

#BEND 6E        N/A         64  42  45  CALM    29.89R
#BEND 1SW       N/A         56  42  59  CALM    N/A
#BEND-AWBREY    N/A         69  44  40  CALM    29.95S
#BEND-KIM LN    N/A         63  49  60  CALM    30.16R
#CULVER         N/A         65  51  60  CALM    30.09S
#LAKE BILLY CHINN/A         67  21  17  CALM    30.16S
#POWELL BUTTE 3EN/A         60  37  42  SE2     N/A
#POWELL BUTTE   N/A         63  38  39  CALM    29.81S
#PRINEVILLE 3N  N/A         59  46  62  CALM    29.93S


ORZ509-131310-
EAST SLOPES OF OREGON CASCADES

CITY            SKY/WX      TMP DP  RH  WIND    PRES   REMARKS
#BLUE BOX PASS  N/A         70  15  12  NE2     N/A
#BLACK BUTTE RNCN/A         58  51  77  CALM    29.98S
#CAMP SHERMAN   N/A         53  49  86  CALM    30.00R
#LA PINE DOT    N/A         53  48  83  SE2     N/A
#LA PINE 4NW    N/A         50  45  83  CALM    30.02S
#LAVA BUTTE DOT N/A         59  43  55  CALM    N/A
#SISTERS AIRPOR N/A         57  53  86  CALM    30.15S
#SISTERS ODOT   N/A         55  N/A N/A CALM    N/A
#SISTERS 3N     N/A         55  32  41  CALM    30.16S
#SUNRIVER       N/A         54  49  83  CALM    29.87S
#SUNRIVER AP    N/A         51  48  89  CALM    29.95R
#SUTTLE LK DOT  N/A         55  49  80  E12     N/A
#TUMALO 3W      N/A         74  41  30  W3      29.83S
#WANOGA BUTTE D N/A         66  31  27  NE6     N/A

$$

ORZ044-131310-
LOWER COLUMBIA BASIN...OREGON

CITY            SKY/WX      TMP DP  RH  WIND    PRES   REMARKS
HERMISTON       MOCLDY      60  52  75  SE3     30.02R
6HR MIN TEMP:   60; 6HR MAX TEMP:   79;

#BOARDMAN 3W    N/A         61  53  75  SE2     29.71R
#BOARDMAN 8SW   N/A         68  45  44  CALM    29.97R
#IONE SCHOOL    N/A         65  41  41  CALM    30.03S
#IRRIGON 4NW    N/A         62  57  84  E2      N/A
#UMATILLA SCHOOLN/A         63  60  90  SE1     30.06S
#UMATILLA       N/A         65  48  54  CALM    29.97S
$$

ORZ507-131310-
NORTHERN FOOTHILLS OF THE BLUES

CITY            SKY/WX      TMP DP  RH  WIND    PRES   REMARKS
PENDLETON AIRPT MOCLDY      68  43  40  E10     30.05S
6HR MIN TEMP:   67; 6HR MAX TEMP:   80;

#ADAMS 3WNW     N/A         58  40  51  CALM    29.97R
#ATHENA         N/A         58  45  62  CALM    29.99S
#HELIX SCHOOL   N/A         60  43  53  CALM    29.97R
#HELIX 3N       N/A         68  41  37  CALM    30.04S
#HELIX 6SW      N/A         67  43  42  CALM    30.05S
#M-F FERNDALE   N/A         63  48  58  CALM    30.01S
#M-F GROVE ELEM N/A         72  39  30  CALM    30.02S
#M-FREEWATER 5SEN/A         74  47  38  E7      30.03S
#PDT AQUATIC CTRN/A         65  43  45  CALM    30.06S
#PENDLETON DNTN N/A         64  39  40  E2      30.01S
#PDT SUNRIDGE   N/A         59  46  62  CALM    30.06R
#PENDLETON 7NW  N/A         65  46  50  CALM    27.96F
#PILOT ROCK     N/A         73  39  29  SE6     30.09R
#TUTUILLA       N/A         64  49  58  CALM    29.93R
#UMAPINE 2E     N/A         63  51  65  CALM    29.98S
#WESTON SCHOOL  N/A         72  38  29  W1      30.06S

$$

ORZ508-131310-
SOUTHERN FOOTHILLS OF THE BLUES

CITY            SKY/WX      TMP DP  RH  WIND    PRES   REMARKS
#AJAX           N/A         N/A N/A N/A E1      30.11S
#CONDON SCHOOL  N/A         74  39  28  CALM    30.09S
#CONDON 5W      N/A         76  34  22  NE6     30.13S
#FOSSIL SCHOOL  N/A         61  36  39  CALM    30.10S
#HEPPNER EOC    N/A         73  41  31  SE7     29.91S
#HEPPNER 4NE    N/A         75  40  28  CALM    29.95S
#LEXINGTON 2SE  N/A         68  43  40  CALM    30.04S
#MIKKALO        N/A         67  38  34  E5      30.08S
#OLEX 4N        N/A         70  38  31  S6      30.01S
#RUGGS 5NE      N/A         69  34  27  E2      30.30S
#RUGGS 2SW      N/A         74  37  26  E1      30.00R

$$

ORZ502-503-131310-
BLUE MOUNTAINS

CITY            SKY/WX      TMP DP  RH  WIND    PRES   REMARKS
MEACHAM         MOCLDY      49  45  86  CALM    30.22S
6HR MIN TEMP:   49; 6HR MAX TEMP:   59;

#BATTLE MTN DOT N/A         59  47  64  CALM    N/A
#HARDMAN 10S    N/A         67  37  33  CALM    30.26F
#HEPPNER 15SE   N/A         61  41  48  CALM    30.16S
#LADD CYN SMT   N/A         57  39  51  CALM    N/A
#LADD CREEK ODOTN/A         59  43  55  S5      N/A
#N POWDER DOT   N/A         53  50  89  SW2     N/A
#TOLLGATE       N/A         62  42  48  CALM    30.19S
#TROY SCHOOL    N/A         58  47  67  CALM    29.91R
#UKIAH          N/A         48  44  86  CALM    30.09R
#WESTON 4E      N/A         74  41  30  E2      29.90S
$$

ORZ505-131310-
JOHN DAY BASIN

CITY            SKY/WX      TMP DP  RH  WIND    PRES   REMARKS
JOHN DAY        PTCLDY      64  41  43  E9      30.21R
#JOHN DAY KJDY  N/A         60  48  64  CALM    30.09F
#MONUMENT HS    N/A         60  44  55  CALM    29.89R
#MT. VERNON 5SE N/A         65  39  38  CALM    30.17S
#WINLOCK        N/A         66  35  32  CALM    30.22S
$$

ORZ506-131310-
OCHOCO AND JOHN DAY HIGHLANDS

CITY            SKY/WX      TMP DP  RH  WIND    PRES   REMARKS
#BUCK CREEK DOT N/A         66  43  43  SW1     N/A
#HORSE RIDGE DO N/A         57  42  57  CALM    N/A
#KEYES SMT DOT  N/A         69  34  27  E2      N/A
#PAULINA SCHOOL N/A         N/A N/A N/A CALM    30.16S
#PINE MTN OBS   N/A         67  35  30  CALM    N/A
#PRAIRIE CITY   N/A         52  44  74  CALM    30.21R
#SENECA 9NW     N/A         49  40  71  CALM    29.98S
$$

ORZ049-131310-
GRANDE RONDE VALLEY

CITY            SKY/WX      TMP DP  RH  WIND    PRES   REMARKS
LA GRANDE       PTCLDY      55  39  55  CALM    30.17R
#COVE           N/A         58  49  72  CALM    30.09R
#COVE SCHOOL    N/A         58  47  67  CALM    30.14R
#COVE 6NW       N/A         53  46  77  CALM    30.06S
#ELGIN 3N       N/A         56  42  59  CALM    29.89S
#ELGIN 1E       N/A         55  47  74  CALM    N/A
#ISLAND CITY 4N N/A         57  47  69  CALM    29.97R
#LADD CYN DOT   N/A         64  40  41  SE12    N/A
#UNION 1S       N/A         55  46  72  CALM    29.92S
$$

ORZ050-131310-
WALLOWA COUNTY

CITY            SKY/WX      TMP DP  RH  WIND    PRES   REMARKS
JOSEPH AIRPORT  PTCLDY      57  43  59  S3      30.26R
#ENTERPRISE HS  N/A         52  47  83  CALM    30.22R
#IMNAHA SCHOOL  N/A         64  46  52  CALM    30.13R
#IMNAHA 10S     N/A         65  43  45  SW3     30.16R
#JOSEPH 3N      N/A         51  45  80  CALM    30.24R
#LOSTINE        N/A         53  45  74  CALM    29.83R
#MT HOWARD 8000 N/A         63  28  26  SW2     30.53R
#PROMISE 1S     N/A         59  43  55  CALM    30.11R
#SHEEP RDG 7000 N/A         65  37  35  CALM    29.98S
#WALLOWA SCHOOL N/A         52  47  83  CALM    30.91R



$$



USA.gov is the U.S. government's official web portal to all federal, state and local government web resources and services.